Regional Weather Roundup
Issued by NWS

Home | Current Version | Previous Version | Graphics & Text | Print | Product List | Glossary On
Versions: 1 2 3 4 5 6 7 8 9 10 11 12 13 14 15 16 17 18 19 20 21 22 23 24 25 26 27
000
ASUS45 KBOI 280110
RWRID

IDAHO REGIONAL WEATHER ROUNDUP
NATIONAL WEATHER SERVICE BOISE ID
700 PM MDT SAT AUG 27 2016

NOTE: "FAIR" INDICATES FEW OR NO CLOUDS BELOW 12000 FEET
WITH NO SIGNIFICANT WEATHER AND/OR OBSTRUCTIONS TO VISIBILITY

IDZ012-014-280200-
SOUTHWEST IDAHO


CITY           SKY/WX    TMP DP  RH WIND       PRES   REMARKS
BOISE          SUNNY     90  30  11 NW7       29.85S
CALDWELL       SUNNY     88  45  22 NE5       29.82F
MOUNTAIN HOME  SUNNY     90  32  12 NW8       29.85S
$$

IDZ016-017-280200-
SOUTHCENTRAL IDAHO


CITY           SKY/WX    TMP DP  RH WIND       PRES   REMARKS
BURLEY         MOSUNNY   77  44  30 VRB3      29.95F
JEROME         SUNNY     83  32  16 CALM      29.95F
TWIN FALLS     SUNNY     82  27  13 N3        29.96F
$$

IDZ019>023-280200-
SOUTHEAST IDAHO


CITY           SKY/WX    TMP DP  RH WIND       PRES   REMARKS
IDAHO FALLS    SUNNY     78  31  17 S13       29.98S
POCATELLO      CLOUDY    80  32  17 W14       29.98F
REXBURG        CLOUDY    77  33  20 S13       29.98S
$$

IDZ006-010-011-018-031-032-280200-
CENTRAL IDAHO MOUNTAINS


CITY           SKY/WX    TMP DP  RH WIND       PRES   REMARKS
MCCALL         FAIR      77  30  17 S8        29.99S
HAILEY         SUNNY     79  30  17 S12       30.00S
STANLEY          N/A     72  25  17 NW6       30.09R
SALMON         SUNNY     79  43  27 SW8       29.81R
CHALLIS        CLOUDY    79  25  13 W10       29.94R HAZE
$$

IDZ002-004-006-007-026-280200-
NORTHERN IDAHO


CITY           SKY/WX    TMP DP  RH WIND       PRES   REMARKS
LEWISTON       CLOUDY    90  41  18 SW20      29.72S
LOWELL           N/A     79  54  41 N3        29.71R
COEUR D`ALENE  CLOUDY    81  43  26 NE12      29.71F
MULLAN PASS    CLOUDY    62  36  37 SW8G22    29.96S
$$




USA.gov is the U.S. government's official web portal to all federal, state and local government web resources and services.